This is the latest recevied weather packets stored in our database for station/object SP3OTE-2. If no packets are shown the sender has not sent any weather packets the latest 10 day(s).
| Time | Temp. | Humidity | Pressure | Rain* | Wind** | Luminosity | Snow |
|---|---|---|---|---|---|---|---|
| 1777886171 | 23.89° C | 38% | 1014.2 hPa | - | - | - | - |
| 1777885571 | 23.33° C | 39% | 1014.2 hPa | - | - | - | - |
| 1777884970 | 22.78° C | 40% | 1014.5 hPa | - | - | - | - |
| 1777884370 | 22.22° C | 41% | 1014.4 hPa | - | - | - | - |
| 1777883770 | 21.67° C | 42% | 1014.4 hPa | - | - | - | - |
| 1777883170 | 21.67° C | 42% | 1014.4 hPa | - | - | - | - |
| 1777882570 | 20.56° C | 43% | 1014.4 hPa | - | - | - | - |
| 1777881969 | 20.56° C | 43% | 1014.4 hPa | - | - | - | - |
| 1777881369 | 20° C | 43% | 1014.4 hPa | - | - | - | - |
| 1777880769 | 20° C | 43% | 1014.3 hPa | - | - | - | - |
| 1777880169 | 19.44° C | 43% | 1014.2 hPa | - | - | - | - |
| 1777879568 | 19.44° C | 44% | 1014.3 hPa | - | - | - | - |
| 1777878968 | 19.44° C | 44% | 1014.3 hPa | - | - | - | - |
| 1777878368 | 19.44° C | 44% | 1014.2 hPa | - | - | - | - |
| 1777877768 | 18.89° C | 44% | 1014.3 hPa | - | - | - | - |
| 1777877167 | 18.89° C | 44% | 1014.2 hPa | - | - | - | - |
| 1777876567 | 18.33° C | 45% | 1014.2 hPa | - | - | - | - |
| 1777875967 | 18.33° C | 45% | 1014.1 hPa | - | - | - | - |
| 1777875367 | 18.33° C | 44% | 1014.1 hPa | - | - | - | - |
| 1777874766 | 17.78° C | 44% | 1014.1 hPa | - | - | - | - |
| 1777874166 | 17.78° C | 45% | 1014.2 hPa | - | - | - | - |
| 1777873566 | 16.67° C | 46% | 1014.1 hPa | - | - | - | - |
| 1777872965 | 16.11° C | 47% | 1014.1 hPa | - | - | - | - |
| 1777872365 | 16.11° C | 47% | 1014.1 hPa | - | - | - | - |
| 1777871765 | 15.56° C | 48% | 1014.2 hPa | - | - | - | - |
* Rain since midnight (hover to see other rain measurements)
** Current wind speed in m/s (hover to see current wind gust speed)